| time (UTC) | temp F | wind direction | speed knots | gust knots | rain 1hr in | rain 24hr in | rain mn in | humidity % | barometer mb |
| 20260507161035 | 53 | 186 | 0.9 | 7.0 | 0.00 | 0.58 | 0.00 | 69 | 1006.7 |
| 20260507160535 | 51 | 242 | 1.7 | 7.0 | 0.00 | 0.58 | 0.00 | 60 | 1006.7 |
| 20260507160045 | 51 | 40 | 0.9 | 7.8 | 0.00 | 0.58 | 0.00 | 61 | 1006.7 |
| 20260507155535 | 51 | 0 | 2.6 | 7.8 | 0.00 | 0.64 | 0.00 | 68 | 1006.8 |
| 20260507155035 | 50 | 0 | 0.9 | 7.0 | 0.00 | 0.64 | 0.00 | 59 | 1006.9 |
| 20260507154545 | 50 | 43 | 1.7 | 9.6 | 0.00 | 0.64 | 0.00 | 62 | 1007.0 |
| 20260507154035 | 49 | 243 | 2.6 | 9.6 | 0.00 | 0.64 | 0.00 | 61 | 1007.0 |
| 20260507153535 | 49 | 346 | 2.6 | 10.4 | 0.00 | 0.64 | 0.00 | 59 | 1007.1 |
| 20260507153045 | 49 | 338 | 3.5 | 10.4 | 0.00 | 0.64 | 0.00 | 61 | 1007.0 |
| 20260507152536 | 49 | 245 | 1.7 | 7.8 | 0.00 | 0.64 | 0.00 | 72 | 1007.0 |
| 20260507152036 | 47 | 196 | 0.9 | 8.7 | 0.00 | 0.64 | 0.00 | 71 | 1007.1 |
| 20260507151548 | 47 | 303 | 1.7 | 8.7 | 0.00 | 0.64 | 0.00 | 70 | 1007.1 |
| 20260507151035 | 48 | 138 | 1.7 | 7.0 | 0.00 | 0.64 | 0.00 | 76 | 1007.1 |
| 20260507150538 | 50 | 162 | 1.7 | 5.2 | 0.00 | 0.64 | 0.00 | 81 | 1007.1 |
| 20260507150047 | 49 | 281 | 0.9 | 5.2 | 0.00 | 0.64 | 0.00 | 77 | 1006.9 |
| 20260507145536 | 47 | 0 | 1.7 | 4.3 | 0.00 | 0.72 | 0.00 | 78 | 1006.9 |
| 20260507145035 | 48 | 217 | 0.9 | 3.5 | 0.00 | 0.72 | 0.00 | 80 | 1006.9 |
| 20260507144548 | 47 | 337 | 0.0 | 5.2 | 0.00 | 0.72 | 0.00 | 85 | 1007.0 |
| 20260507144036 | 47 | 5 | 0.9 | 5.2 | 0.00 | 0.72 | 0.00 | 79 | 1006.9 |
| 20260507143535 | 48 | 175 | 0.9 | 4.3 | 0.00 | 0.72 | 0.00 | 84 | 1007.0 |
| 20260507143049 | 47 | 250 | 0.0 | 4.3 | 0.00 | 0.72 | 0.00 | 82 | 1007.0 |
| 20260507142535 | 46 | 189 | 0.0 | 3.5 | 0.00 | 0.72 | 0.00 | 84 | 1007.2 |
| 20260507142035 | 47 | 0 | 0.0 | 3.5 | 0.00 | 0.72 | 0.00 | 84 | 1007.2 |
| 20260507141556 | 46 | 355 | 0.0 | 3.5 | 0.00 | 0.72 | 0.00 | 89 | 1007.2 |
| 20260507141035 | 45 | 129 | 0.0 | 3.5 | 0.00 | 0.72 | 0.00 | 91 | 1007.2 |
| 20260507140535 | 44 | 0 | 0.0 | 1.7 | 0.00 | 0.72 | 0.00 | 93 | 1007.3 |
| 20260507140056 | 44 | 114 | 0.0 | 2.6 | 0.00 | 0.72 | 0.00 | 94 | 1007.2 |
| 20260507135540 | 43 | 148 | 0.0 | 3.5 | 0.00 | 0.80 | 0.00 | 95 | 1007.1 |
| 20260507135035 | 43 | 175 | 0.0 | 3.5 | 0.00 | 0.80 | 0.00 | 95 | 1007.3 |
| 20260507134549 | 43 | 0 | 0.0 | 0.9 | 0.00 | 0.80 | 0.00 | 95 | 1007.3 |
| 20260507134034 | 43 | 0 | 0.0 | 0.9 | 0.00 | 0.80 | 0.00 | 95 | 1007.3 |
| 20260507133535 | 43 | 0 | 0.0 | 1.7 | 0.00 | 0.80 | 0.00 | 95 | 1007.3 |
| 20260507133048 | 43 | 0 | 0.0 | 1.7 | 0.00 | 0.80 | 0.00 | 96 | 1007.3 |
| 20260507132536 | 42 | 0 | 0.0 | 0.0 | 0.00 | 0.80 | 0.00 | 95 | 1007.2 |
| 20260507132035 | 42 | 0 | 0.0 | 0.0 | 0.00 | 0.80 | 0.00 | 95 | 1007.3 |
| 20260507131548 | 42 | 0 | 0.0 | 2.6 | 0.00 | 0.80 | 0.00 | 95 | 1007.3 |
| 20260507131037 | 42 | 0 | 0.0 | 2.6 | 0.00 | 0.80 | 0.00 | 95 | 1007.3 |
| 20260507130536 | 42 | 0 | 0.0 | 1.7 | 0.00 | 0.80 | 0.00 | 95 | 1007.3 |
| 20260507130052 | 42 | 0 | 0.0 | 0.0 | 0.00 | 0.80 | 0.00 | 95 | 1007.4 |
| 20260507125535 | 43 | 0 | 0.0 | 0.0 | 0.00 | 0.82 | 0.00 | 96 | 1007.3 |
| 20260507125039 | 43 | 0 | 0.0 | 0.0 | 0.00 | 0.82 | 0.00 | 96 | 1007.3 |
| 20260507124553 | 42 | 0 | 0.0 | 0.0 | 0.00 | 0.82 | 0.00 | 96 | 1007.3 |
| 20260507124036 | 42 | 0 | 0.0 | 0.9 | 0.00 | 0.82 | 0.00 | 96 | 1007.3 |
| 20260507123535 | 42 | 0 | 0.0 | 0.9 | 0.00 | 0.82 | 0.00 | 96 | 1007.2 |
| 20260507123046 | 42 | 0 | 0.0 | 0.9 | 0.00 | 0.82 | 0.00 | 96 | 1007.3 |
| 20260507122534 | 42 | 0 | 0.0 | 0.0 | 0.00 | 0.82 | 0.00 | 96 | 1007.3 |
| 20260507122036 | 42 | 0 | 0.0 | 0.0 | 0.00 | 0.82 | 0.00 | 96 | 1007.3 |
| 20260507121548 | 42 | 0 | 0.0 | 0.0 | 0.00 | 0.82 | 0.00 | 96 | 1007.3 |
| 20260507121035 | 42 | 0 | 0.0 | 0.0 | 0.00 | 0.82 | 0.00 | 96 | 1007.2 |
| 20260507120534 | 42 | 0 | 0.0 | 0.0 | 0.00 | 0.82 | 0.00 | 96 | 1007.2 |
| 20260507120049 | 42 | 0 | 0.0 | 0.0 | 0.00 | 0.82 | 0.00 | 96 | 1007.1 |
| 20260507115537 | 41 | 0 | 0.0 | 0.0 | 0.00 | 0.82 | 0.00 | 96 | 1007.2 |
| 20260507115036 | 41 | 0 | 0.0 | 0.9 | 0.00 | 0.82 | 0.00 | 96 | 1007.2 |
| 20260507114545 | 41 | 0 | 0.0 | 0.9 | 0.00 | 0.82 | 0.00 | 96 | 1007.2 |
| 20260507114039 | 41 | 0 | 0.0 | 0.9 | 0.00 | 0.82 | 0.00 | 96 | 1007.1 |
| 20260507113538 | 41 | 0 | 0.0 | 0.9 | 0.00 | 0.82 | 0.00 | 96 | 1007.2 |
| 20260507113048 | 41 | 0 | 0.0 | 0.0 | 0.00 | 0.82 | 0.00 | 96 | 1007.3 |
| 20260507112538 | 41 | 0 | 0.0 | 0.0 | 0.00 | 0.82 | 0.00 | 96 | 1007.2 |
| 20260507112041 | 40 | 0 | 0.0 | 0.0 | 0.00 | 0.82 | 0.00 | 96 | 1007.1 |
| 20260507111550 | 40 | 0 | 0.0 | 0.0 | 0.00 | 0.82 | 0.00 | 96 | 1007.0 |
| 20260507111037 | 40 | 0 | 0.0 | 0.0 | 0.00 | 0.82 | 0.00 | 96 | 1007.1 |
| 20260507110537 | 40 | 0 | 0.0 | 0.0 | 0.00 | 0.82 | 0.00 | 96 | 1007.1 |
| 20260507110050 | 40 | 0 | 0.0 | 0.0 | 0.00 | 0.82 | 0.00 | 96 | 1007.0 |
| 20260507105536 | 40 | 0 | 0.0 | 0.0 | 0.00 | 0.82 | 0.00 | 96 | 1007.0 |
| 20260507105037 | 40 | 0 | 0.0 | 0.0 | 0.00 | 0.82 | 0.00 | 96 | 1007.1 |
| 20260507104547 | 39 | 0 | 0.0 | 0.0 | 0.00 | 0.82 | 0.00 | 96 | 1007.2 |
| 20260507104036 | 40 | 0 | 0.0 | 0.0 | 0.00 | 0.82 | 0.00 | 96 | 1007.3 |
| 20260507103537 | 39 | 0 | 0.0 | 0.0 | 0.00 | 0.82 | 0.00 | 96 | 1007.2 |
| 20260507103045 | 39 | 0 | 0.0 | 0.0 | 0.00 | 0.82 | 0.00 | 96 | 1007.1 |
| 20260507102536 | 39 | 0 | 0.0 | 0.9 | 0.00 | 0.82 | 0.00 | 96 | 1007.1 |
| 20260507102038 | 39 | 0 | 0.0 | 0.9 | 0.00 | 0.82 | 0.00 | 96 | 1007.2 |
| 20260507101600 | 39 | 0 | 0.0 | 0.9 | 0.00 | 0.82 | 0.00 | 96 | 1007.1 |
| 20260507101037 | 39 | 0 | 0.0 | 0.0 | 0.00 | 0.82 | 0.00 | 96 | 1007.1 |
| 20260507100537 | 39 | 0 | 0.0 | 0.0 | 0.00 | 0.82 | 0.00 | 96 | 1007.0 |
| 20260507100050 | 38 | 0 | 0.0 | 0.0 | 0.00 | 0.82 | 0.00 | 96 | 1006.8 |
| 20260507095537 | 38 | 0 | 0.0 | 0.0 | 0.00 | 0.82 | 0.00 | 96 | 1006.8 |
| 20260507095036 | 38 | 0 | 0.0 | 0.9 | 0.00 | 0.82 | 0.00 | 96 | 1006.9 |
| 20260507094554 | 38 | 0 | 0.0 | 0.9 | 0.00 | 0.82 | 0.00 | 96 | 1006.9 |
| 20260507094041 | 38 | 0 | 0.0 | 0.9 | 0.00 | 0.82 | 0.00 | 96 | 1006.8 |
| 20260507093537 | 37 | 0 | 0.0 | 0.0 | 0.00 | 0.82 | 0.00 | 96 | 1006.8 |
| 20260507093044 | 37 | 0 | 0.0 | 0.0 | 0.00 | 0.82 | 0.00 | 96 | 1006.7 |
| 20260507092539 | 37 | 0 | 0.0 | 0.0 | 0.00 | 0.82 | 0.00 | 96 | 1006.7 |
| 20260507092036 | 37 | 0 | 0.0 | 0.0 | 0.00 | 0.82 | 0.00 | 96 | 1006.6 |
| 20260507091600 | 38 | 0 | 0.0 | 0.0 | 0.00 | 0.82 | 0.00 | 96 | 1006.5 |
| 20260507091037 | 39 | 0 | 0.0 | 0.0 | 0.00 | 0.82 | 0.00 | 96 | 1006.6 |
| 20260507090537 | 39 | 0 | 0.0 | 0.0 | 0.00 | 0.82 | 0.00 | 96 | 1006.6 |
| 20260507090107 | 39 | 0 | 0.0 | 0.0 | 0.00 | 0.82 | 0.00 | 96 | 1006.7 |
| 20260507085538 | 39 | 0 | 0.0 | 0.0 | 0.00 | 0.83 | 0.00 | 96 | 1006.8 |
| 20260507085036 | 39 | 0 | 0.0 | 0.0 | 0.00 | 0.83 | 0.00 | 96 | 1006.8 |
| 20260507084547 | 39 | 0 | 0.0 | 0.0 | 0.00 | 0.83 | 0.00 | 96 | 1006.9 |
| 20260507084036 | 39 | 0 | 0.0 | 0.0 | 0.00 | 0.83 | 0.00 | 96 | 1007.0 |
| 20260507083540 | 39 | 0 | 0.0 | 1.7 | 0.00 | 0.83 | 0.00 | 96 | 1006.9 |
| 20260507083059 | 39 | 0 | 0.0 | 1.7 | 0.00 | 0.83 | 0.00 | 96 | 1006.9 |
| 20260507082542 | 39 | 203 | 0.0 | 0.9 | 0.00 | 0.83 | 0.00 | 96 | 1006.9 |
| 20260507082038 | 39 | 0 | 0.0 | 0.0 | 0.00 | 0.83 | 0.00 | 96 | 1006.8 |
| 20260507081552 | 39 | 0 | 0.0 | 0.0 | 0.00 | 0.83 | 0.00 | 96 | 1006.7 |
| 20260507081037 | 39 | 0 | 0.0 | 0.0 | 0.00 | 0.83 | 0.00 | 96 | 1006.6 |
| 20260507080537 | 39 | 0 | 0.0 | 0.0 | 0.00 | 0.83 | 0.00 | 96 | 1006.6 |
| 20260507080049 | 39 | 0 | 0.0 | 0.0 | 0.00 | 0.83 | 0.00 | 96 | 1006.6 |
| 20260507075539 | 39 | 0 | 0.0 | 0.0 | 0.00 | 0.87 | 0.00 | 96 | 1006.6 |
| 20260507075037 | 40 | 0 | 0.0 | 0.0 | 0.00 | 0.87 | 0.00 | 96 | 1006.6 |
| 20260507074553 | 40 | 0 | 0.0 | 0.0 | 0.00 | 0.87 | 0.00 | 96 | 1006.7 |
| 20260507074036 | 40 | 0 | 0.0 | 0.0 | 0.00 | 0.87 | 0.00 | 96 | 1006.7 |
| 20260507073536 | 40 | 0 | 0.0 | 0.0 | 0.00 | 0.87 | 0.00 | 96 | 1006.5 |
| 20260507073058 | 40 | 0 | 0.0 | 0.0 | 0.00 | 0.87 | 0.00 | 96 | 1006.6 |
| 20260507072537 | 40 | 0 | 0.0 | 0.0 | 0.00 | 0.87 | 0.00 | 96 | 1006.5 |
| 20260507072037 | 40 | 0 | 0.0 | 0.0 | 0.00 | 0.87 | 0.00 | 96 | 1006.5 |
| 20260507071549 | 40 | 0 | 0.0 | 0.0 | 0.00 | 0.87 | 0.00 | 96 | 1006.6 |
| 20260507071036 | 40 | 0 | 0.0 | 0.0 | 0.00 | 0.87 | 0.00 | 96 | 1006.7 |
| 20260507070536 | 40 | 0 | 0.0 | 0.0 | 0.00 | 0.87 | 0.00 | 96 | 1006.6 |
| 20260507070119 | 40 | 0 | 0.0 | 0.0 | 0.00 | 0.87 | 0.00 | 96 | 1006.6 |
| 20260507065536 | 40 | 0 | 0.0 | 0.0 | 0.00 | 0.89 | 0.00 | 96 | 1006.7 |
| 20260507065038 | 40 | 0 | 0.0 | 0.0 | 0.00 | 0.89 | 0.00 | 96 | 1006.7 |
| 20260507064551 | 40 | 0 | 0.0 | 0.0 | 0.00 | 0.89 | 0.00 | 96 | 1006.6 |
| 20260507064036 | 39 | 0 | 0.0 | 0.0 | 0.00 | 0.89 | 0.00 | 96 | 1006.5 |
| 20260507063536 | 40 | 0 | 0.0 | 0.0 | 0.00 | 0.89 | 0.00 | 96 | 1006.6 |
| 20260507063102 | 40 | 0 | 0.0 | 0.0 | 0.00 | 0.89 | 0.00 | 96 | 1006.7 |
| 20260507062537 | 40 | 0 | 0.0 | 0.0 | 0.00 | 0.89 | 0.00 | 96 | 1006.5 |
| 20260507062038 | 40 | 0 | 0.0 | 0.0 | 0.00 | 0.89 | 0.00 | 96 | 1006.6 |
| 20260507061546 | 40 | 0 | 0.0 | 0.0 | 0.00 | 0.89 | 0.00 | 96 | 1006.8 |
| 20260507061036 | 40 | 0 | 0.0 | 0.0 | 0.00 | 0.89 | 0.00 | 96 | 1006.8 |
| 20260507060536 | 40 | 0 | 0.0 | 0.0 | 0.00 | 0.89 | 0.00 | 96 | 1006.9 |
| 20260507060050 | 40 | 0 | 0.0 | 0.0 | 0.00 | 0.89 | 0.00 | 96 | 1007.0 |
| 20260507055537 | 39 | 0 | 0.0 | 0.0 | 0.00 | 0.97 | 0.00 | 96 | 1006.9 |
| 20260507055037 | 39 | 0 | 0.0 | 0.0 | 0.00 | 0.97 | 0.00 | 96 | 1006.5 |
| 20260507054554 | 40 | 0 | 0.0 | 0.0 | 0.00 | 0.97 | 0.00 | 96 | 1006.5 |
| 20260507054037 | 39 | 0 | 0.0 | 0.0 | 0.00 | 0.97 | 0.00 | 96 | 1006.6 |
| 20260507053536 | 40 | 0 | 0.0 | 0.0 | 0.00 | 0.97 | 0.00 | 95 | 1007.0 |
| 20260507053045 | 40 | 0 | 0.0 | 0.0 | 0.00 | 0.97 | 0.00 | 96 | 1006.9 |
| 20260507052537 | 40 | 0 | 0.0 | 0.0 | 0.00 | 0.97 | 0.00 | 96 | 1007.0 |
| 20260507052037 | 40 | 0 | 0.0 | 0.0 | 0.00 | 0.97 | 0.00 | 96 | 1006.8 |
| 20260507051551 | 40 | 0 | 0.0 | 0.0 | 0.00 | 0.97 | 0.00 | 96 | 1006.9 |
| 20260507051036 | 41 | 0 | 0.0 | 0.0 | 0.00 | 0.97 | 0.00 | 95 | 1007.0 |
| 20260507050536 | 41 | 0 | 0.0 | 0.0 | 0.00 | 0.97 | 0.00 | 96 | 1007.0 |
| 20260507050050 | 41 | 0 | 0.0 | 0.0 | 0.00 | 0.97 | 0.00 | 96 | 1007.0 |
| 20260507045537 | 41 | 0 | 0.0 | 0.0 | 0.00 | 1.15 | 0.00 | 95 | 1007.1 |
| 20260507045039 | 41 | 0 | 0.0 | 0.9 | 0.00 | 1.15 | 0.00 | 95 | 1007.1 |
| 20260507044549 | 42 | 0 | 0.0 | 1.7 | 0.00 | 1.15 | 0.00 | 96 | 1007.1 |
| 20260507044036 | 42 | 0 | 0.0 | 1.7 | 0.00 | 1.15 | 0.00 | 96 | 1007.1 |
| 20260507043536 | 42 | 0 | 0.0 | 0.9 | 0.00 | 1.15 | 0.00 | 96 | 1007.1 |
| 20260507043045 | 42 | 0 | 0.0 | 0.9 | 0.00 | 1.15 | 0.00 | 96 | 1007.0 |
| 20260507042537 | 42 | 0 | 0.0 | 0.9 | 0.00 | 1.15 | 0.00 | 96 | 1006.9 |
| 20260507042036 | 42 | 0 | 0.0 | 1.7 | 0.00 | 1.15 | 0.00 | 96 | 1006.8 |
| 20260507041545 | 42 | 0 | 0.0 | 2.6 | 0.00 | 1.15 | 0.00 | 96 | 1007.0 |
| 20260507041036 | 42 | 0 | 0.0 | 2.6 | 0.00 | 1.15 | 0.00 | 96 | 1007.1 |
| 20260507040538 | 42 | 0 | 0.0 | 1.7 | 0.00 | 1.15 | 0.00 | 96 | 1007.3 |
| 20260507040050 | 42 | 0 | 0.0 | 0.9 | 0.00 | 1.15 | 0.00 | 96 | 1007.4 |
| 20260507035537 | 42 | 0 | 0.0 | 0.0 | 0.00 | 1.20 | 1.15 | 96 | 1007.4 |
| 20260507035037 | 42 | 0 | 0.0 | 0.0 | 0.00 | 1.20 | 1.15 | 96 | 1007.4 |
| 20260507034547 | 42 | 0 | 0.0 | 0.0 | 0.00 | 1.20 | 1.15 | 96 | 1007.4 |
| 20260507034037 | 42 | 0 | 0.0 | 0.0 | 0.01 | 1.20 | 1.15 | 96 | 1007.4 |
| 20260507033542 | 42 | 0 | 0.0 | 0.0 | 0.01 | 1.20 | 1.15 | 96 | 1007.3 |
| 20260507033049 | 42 | 0 | 0.0 | 0.0 | 0.01 | 1.20 | 1.15 | 96 | 1007.2 |
| 20260507032537 | 42 | 0 | 0.0 | 0.0 | 0.01 | 1.20 | 1.15 | 96 | 1007.1 |
| 20260507032036 | 42 | 0 | 0.0 | 0.0 | 0.01 | 1.20 | 1.15 | 96 | 1007.0 |
| 20260507031548 | 42 | 0 | 0.0 | 0.0 | 0.01 | 1.20 | 1.15 | 96 | 1007.2 |
| 20260507031041 | 42 | 0 | 0.0 | 0.0 | 0.02 | 1.20 | 1.15 | 96 | 1007.3 |
| 20260507030537 | 42 | 0 | 0.0 | 0.0 | 0.02 | 1.20 | 1.15 | 96 | 1007.3 |
| 20260507030057 | 42 | 0 | 0.0 | 0.0 | 0.02 | 1.20 | 1.15 | 95 | 1007.3 |
| 20260507025536 | 42 | 0 | 0.0 | 0.0 | 0.03 | 1.20 | 1.15 | 95 | 1007.4 |
| 20260507025036 | 42 | 0 | 0.0 | 0.0 | 0.04 | 1.20 | 1.15 | 95 | 1007.3 |
| 20260507024545 | 42 | 0 | 0.0 | 0.0 | 0.04 | 1.20 | 1.15 | 95 | 1007.1 |
| 20260507024037 | 42 | 0 | 0.0 | 0.0 | 0.03 | 1.19 | 1.14 | 95 | 1007.3 |
| 20260507023539 | 43 | 0 | 0.0 | 0.0 | 0.03 | 1.19 | 1.14 | 95 | 1007.5 |
| 20260507023047 | 43 | 0 | 0.0 | 0.0 | 0.03 | 1.19 | 1.14 | 95 | 1007.7 |
| 20260507022536 | 43 | 0 | 0.0 | 0.0 | 0.03 | 1.19 | 1.14 | 95 | 1007.8 |
| 20260507022036 | 43 | 0 | 0.0 | 0.0 | 0.03 | 1.19 | 1.14 | 95 | 1007.7 |
| 20260507021551 | 43 | 0 | 0.0 | 0.0 | 0.04 | 1.19 | 1.14 | 95 | 1007.8 |
| 20260507021036 | 43 | 0 | 0.0 | 0.0 | 0.03 | 1.17 | 1.13 | 95 | 1007.8 |
| 20260507020536 | 43 | 0 | 0.0 | 0.0 | 0.03 | 1.17 | 1.13 | 95 | 1007.7 |
| 20260507020052 | 43 | 0 | 0.0 | 0.0 | 0.04 | 1.17 | 1.13 | 95 | 1007.6 |
| 20260507015536 | 43 | 0 | 0.0 | 0.0 | 0.04 | 1.16 | 1.12 | 95 | 1007.6 |
| 20260507015036 | 43 | 0 | 0.0 | 0.0 | 0.03 | 1.16 | 1.11 | 95 | 1007.7 |
| 20260507014608 | 43 | 0 | 0.0 | 0.0 | 0.03 | 1.16 | 1.11 | 95 | 1007.7 |
| 20260507014037 | 43 | 0 | 0.0 | 1.7 | 0.03 | 1.16 | 1.11 | 95 | 1007.6 |
| 20260507013537 | 43 | 0 | 0.0 | 1.7 | 0.03 | 1.16 | 1.11 | 95 | 1007.6 |
| 20260507013052 | 43 | 0 | 0.0 | 0.9 | 0.04 | 1.16 | 1.11 | 95 | 1007.5 |
| 20260507012537 | 43 | 0 | 0.0 | 0.9 | 0.04 | 1.16 | 1.11 | 95 | 1007.4 |
| 20260507012036 | 43 | 0 | 0.0 | 0.9 | 0.03 | 1.15 | 1.10 | 95 | 1007.3 |
| 20260507011546 | 43 | 0 | 0.0 | 1.7 | 0.03 | 1.15 | 1.10 | 95 | 1007.2 |
| 20260507011036 | 43 | 0 | 0.0 | 1.7 | 0.03 | 1.15 | 1.10 | 95 | 1007.2 |
| 20260507010536 | 43 | 306 | 0.0 | 1.7 | 0.04 | 1.15 | 1.10 | 95 | 1007.3 |
| 20260507010050 | 43 | 0 | 0.0 | 1.7 | 0.03 | 1.14 | 1.09 | 95 | 1007.4 |
| 20260507005536 | 43 | 0 | 0.0 | 1.7 | 0.02 | 1.13 | 1.08 | 95 | 1007.4 |
| 20260507005035 | 43 | 0 | 0.0 | 0.9 | 0.02 | 1.13 | 1.08 | 95 | 1007.1 |
| 20260507004547 | 43 | 0 | 0.0 | 0.0 | 0.02 | 1.13 | 1.08 | 95 | 1007.1 |
| 20260507004037 | 43 | 0 | 0.0 | 0.9 | 0.02 | 1.13 | 1.08 | 95 | 1007.2 |
| 20260507003538 | 43 | 0 | 0.0 | 0.9 | 0.02 | 1.13 | 1.08 | 94 | 1007.0 |
| 20260507003051 | 43 | 0 | 0.0 | 0.9 | 0.01 | 1.12 | 1.07 | 94 | 1006.7 |
| 20260507002536 | 43 | 0 | 0.0 | 2.6 | 0.01 | 1.12 | 1.07 | 94 | 1006.7 |
| 20260507002039 | 43 | 0 | 0.0 | 2.6 | 0.01 | 1.12 | 1.07 | 94 | 1006.6 |
| 20260507001552 | 43 | 0 | 0.0 | 1.7 | 0.01 | 1.12 | 1.07 | 94 | 1006.4 |
| 20260507001035 | 43 | 0 | 0.0 | 1.7 | 0.00 | 1.11 | 1.05 | 94 | 1006.5 |
| 20260507000536 | 43 | 0 | 0.0 | 6.1 | 0.00 | 1.11 | 1.05 | 94 | 1006.5 |
| 20260507000048 | 43 | 325 | 0.0 | 6.1 | 0.00 | 1.11 | 1.05 | 94 | 1006.4 |
| 20260506235536 | 43 | 0 | 0.0 | 2.6 | 0.00 | 1.11 | 1.05 | 94 | 1006.1 |
| 20260506235038 | 43 | 308 | 0.9 | 4.3 | 0.00 | 1.11 | 1.05 | 94 | 1006.3 |
| 20260506234545 | 43 | 0 | 0.9 | 4.3 | 0.00 | 1.11 | 1.05 | 94 | 1006.2 |
| 20260506234038 | 43 | 304 | 0.9 | 4.3 | 0.00 | 1.11 | 1.05 | 94 | 1006.1 |
| 20260506233538 | 43 | 338 | 1.7 | 4.3 | 0.00 | 1.11 | 1.05 | 94 | 1006.1 |
| 20260506233055 | 43 | 310 | 0.9 | 3.5 | 0.00 | 1.11 | 1.05 | 94 | 1006.2 |
| 20260506232537 | 43 | 343 | 0.0 | 2.6 | 0.00 | 1.11 | 1.05 | 94 | 1006.2 |
| 20260506232038 | 43 | 0 | 0.0 | 2.6 | 0.00 | 1.11 | 1.05 | 94 | 1006.3 |
| 20260506231550 | 43 | 0 | 0.0 | 4.3 | 0.00 | 1.11 | 1.05 | 94 | 1006.2 |
| 20260506231040 | 43 | 5 | 0.9 | 6.1 | 0.00 | 1.11 | 1.05 | 94 | 1006.1 |
| 20260506230539 | 43 | 338 | 0.9 | 6.1 | 0.00 | 1.11 | 1.05 | 94 | 1006.3 |
| 20260506230045 | 43 | 331 | 1.7 | 5.2 | 0.00 | 1.11 | 1.05 | 94 | 1006.0 |
| 20260506225538 | 43 | 284 | 1.7 | 4.3 | 0.00 | 1.11 | 1.05 | 94 | 1005.9 |
| 20260506225037 | 43 | 332 | 0.9 | 4.3 | 0.00 | 1.11 | 1.05 | 94 | 1005.8 |
| 20260506224544 | 43 | 310 | 0.9 | 5.2 | 0.00 | 1.11 | 1.05 | 94 | 1005.6 |
| 20260506224036 | 43 | 0 | 0.9 | 5.2 | 0.00 | 1.11 | 1.05 | 94 | 1005.8 |
| 20260506223536 | 43 | 0 | 0.9 | 7.0 | 0.01 | 1.11 | 1.05 | 94 | 1005.7 |
| 20260506223046 | 43 | 345 | 1.7 | 7.0 | 0.01 | 1.11 | 1.05 | 94 | 1005.7 |
| 20260506222536 | 43 | 298 | 1.7 | 7.0 | 0.01 | 1.11 | 1.05 | 94 | 1005.7 |
| 20260506222037 | 43 | 308 | 0.9 | 7.0 | 0.02 | 1.11 | 1.05 | 95 | 1005.6 |
| 20260506221548 | 43 | 300 | 1.7 | 7.0 | 0.03 | 1.11 | 1.05 | 95 | 1005.5 |
| 20260506221036 | 44 | 346 | 0.9 | 6.1 | 0.04 | 1.11 | 1.05 | 95 | 1005.5 |
| 20260506220536 | 44 | 313 | 1.7 | 4.3 | 0.05 | 1.11 | 1.05 | 95 | 1005.5 |
| 20260506220051 | 44 | 329 | 0.9 | 5.2 | 0.06 | 1.11 | 1.05 | 95 | 1005.6 |
| 20260506215538 | 44 | 0 | 1.7 | 5.2 | 0.07 | 1.11 | 1.05 | 95 | 1005.5 |
| 20260506215036 | 44 | 5 | 1.7 | 7.8 | 0.08 | 1.11 | 1.05 | 95 | 1005.5 |
| 20260506214547 | 44 | 284 | 1.7 | 7.8 | 0.09 | 1.11 | 1.05 | 95 | 1005.5 |
| 20260506214036 | 44 | 352 | 1.7 | 7.8 | 0.10 | 1.11 | 1.05 | 95 | 1005.5 |
| 20260506213535 | 44 | 309 | 0.9 | 3.5 | 0.09 | 1.10 | 1.04 | 95 | 1005.5 |
| 20260506213044 | 44 | 308 | 0.9 | 3.5 | 0.09 | 1.10 | 1.04 | 95 | 1005.5 |
| 20260506212536 | 44 | 346 | 0.0 | 3.5 | 0.08 | 1.09 | 1.04 | 95 | 1005.4 |
| 20260506212035 | 44 | 294 | 0.9 | 2.6 | 0.09 | 1.09 | 1.04 | 95 | 1005.6 |
| 20260506211547 | 44 | 338 | 0.9 | 3.5 | 0.08 | 1.08 | 1.03 | 95 | 1005.6 |
| 20260506211036 | 44 | 0 | 0.0 | 3.5 | 0.07 | 1.07 | 1.02 | 95 | 1005.7 |
| 20260506210540 | 44 | 327 | 0.9 | 5.2 | 0.06 | 1.05 | 1.01 | 95 | 1005.6 |
| 20260506210050 | 44 | 0 | 0.9 | 5.2 | 0.05 | 1.04 | 1.00 | 95 | 1005.5 |
| 20260506205535 | 44 | 331 | 0.9 | 5.2 | 0.04 | 1.15 | 0.99 | 95 | 1005.5 |
| 20260506205038 | 45 | 0 | 0.9 | 4.3 | 0.04 | 1.14 | 0.98 | 95 | 1005.4 |
| 20260506204545 | 45 | 0 | 0.9 | 4.3 | 0.03 | 1.13 | 0.97 | 95 | 1005.5 |
| 20260506204035 | 45 | 0 | 0.0 | 3.5 | 0.02 | 1.12 | 0.96 | 95 | 1005.2 |
| 20260506203536 | 45 | 0 | 0.9 | 3.5 | 0.02 | 1.12 | 0.96 | 95 | 1005.2 |
| 20260506203051 | 45 | 285 | 0.9 | 3.5 | 0.02 | 1.12 | 0.96 | 95 | 1005.1 |
| 20260506202536 | 45 | 0 | 0.0 | 3.5 | 0.02 | 1.12 | 0.96 | 95 | 1005.1 |
| 20260506202035 | 45 | 320 | 0.9 | 3.5 | 0.01 | 1.11 | 0.95 | 95 | 1005.3 |
| 20260506201604 | 45 | 304 | 0.9 | 3.5 | 0.01 | 1.11 | 0.95 | 95 | 1005.2 |
| 20260506201039 | 45 | 0 | 0.9 | 3.5 | 0.01 | 1.11 | 0.95 | 95 | 1005.2 |
| 20260506200536 | 45 | 0 | 0.9 | 2.6 | 0.01 | 1.11 | 0.95 | 95 | 1005.2 |
| 20260506200044 | 45 | 292 | 0.0 | 3.5 | 0.02 | 1.11 | 0.95 | 95 | 1005.2 |
| 20260506195536 | 45 | 0 | 0.9 | 3.5 | 0.02 | 1.11 | 0.95 | 95 | 1005.3 |
| 20260506195039 | 45 | 308 | 0.0 | 2.6 | 0.01 | 1.10 | 0.94 | 95 | 1005.2 |
| 20260506194553 | 45 | 286 | 0.0 | 3.5 | 0.01 | 1.10 | 0.94 | 95 | 1005.2 |
| 20260506194036 | 45 | 0 | 0.0 | 4.3 | 0.02 | 1.10 | 0.94 | 95 | 1005.2 |
| 20260506193535 | 45 | 0 | 0.9 | 4.3 | 0.03 | 1.10 | 0.94 | 95 | 1005.2 |
| 20260506193051 | 45 | 21 | 0.9 | 4.3 | 0.04 | 1.10 | 0.94 | 95 | 1005.3 |
| 20260506192536 | 45 | 327 | 0.9 | 4.3 | 0.04 | 1.10 | 0.94 | 95 | 1005.4 |
| 20260506192038 | 45 | 335 | 0.0 | 2.6 | 0.05 | 1.10 | 0.94 | 95 | 1005.3 |
| 20260506191543 | 45 | 309 | 0.0 | 3.5 | 0.05 | 1.10 | 0.94 | 95 | 1005.2 |
| 20260506191037 | 45 | 340 | 0.9 | 3.5 | 0.06 | 1.10 | 0.94 | 95 | 1005.3 |
| 20260506190535 | 45 | 9 | 0.0 | 3.5 | 0.06 | 1.10 | 0.94 | 95 | 1005.4 |
| 20260506190045 | 45 | 273 | 0.0 | 3.5 | 0.06 | 1.09 | 0.93 | 95 | 1005.6 |
| 20260506185536 | 45 | 336 | 0.0 | 2.6 | 0.08 | 1.09 | 0.93 | 95 | 1005.6 |
| 20260506185036 | 44 | 0 | 0.9 | 2.6 | 0.10 | 1.09 | 0.93 | 95 | 1005.6 |
| 20260506184550 | 44 | 0 | 0.9 | 2.6 | 0.12 | 1.09 | 0.93 | 95 | 1005.8 |
| 20260506184036 | 45 | 55 | 0.9 | 4.3 | 0.12 | 1.08 | 0.92 | 95 | 1005.6 |
| 20260506183539 | 45 | 0 | 0.9 | 4.3 | 0.12 | 1.07 | 0.91 | 95 | 1005.5 |
| 20260506183047 | 45 | 274 | 0.9 | 4.3 | 0.12 | 1.05 | 0.90 | 95 | 1005.6 |
| 20260506182535 | 45 | 0 | 0.0 | 2.6 | 0.13 | 1.05 | 0.90 | 95 | 1005.7 |
| 20260506182035 | 45 | 0 | 0.0 | 2.6 | 0.13 | 1.04 | 0.89 | 95 | 1005.7 |
| 20260506181545 | 45 | 0 | 0.0 | 5.2 | 0.13 | 1.04 | 0.89 | 95 | 1005.7 |
| 20260506181036 | 45 | 0 | 0.0 | 5.2 | 0.13 | 1.04 | 0.88 | 95 | 1005.9 |
| 20260506180537 | 46 | 0 | 0.0 | 1.7 | 0.15 | 1.04 | 0.88 | 95 | 1006.0 |
| 20260506180048 | 45 | 153 | 0.0 | 3.5 | 0.17 | 1.03 | 0.87 | 95 | 1006.1 |
| 20260506175536 | 45 | 0 | 0.0 | 3.5 | 0.18 | 1.01 | 0.85 | 95 | 1006.1 |
| 20260506175036 | 46 | 42 | 0.0 | 4.3 | 0.17 | 0.99 | 0.83 | 95 | 1006.1 |
| 20260506174545 | 46 | 0 | 0.9 | 5.2 | 0.17 | 0.97 | 0.81 | 95 | 1006.2 |
| 20260506174036 | 46 | 294 | 0.0 | 5.2 | 0.17 | 0.96 | 0.80 | 95 | 1006.3 |
| 20260506173538 | 47 | 319 | 0.9 | 5.2 | 0.16 | 0.95 | 0.79 | 95 | 1006.3 |
| 20260506173100 | 48 | 326 | 0.0 | 3.5 | 0.16 | 0.94 | 0.78 | 96 | 1006.3 |
| 20260506172537 | 48 | 5 | 0.0 | 3.5 | 0.16 | 0.93 | 0.77 | 96 | 1006.1 |
| 20260506172036 | 48 | 61 | 0.0 | 2.6 | 0.16 | 0.92 | 0.76 | 96 | 1006.0 |
| 20260506171553 | 48 | 352 | 0.0 | 2.6 | 0.16 | 0.92 | 0.76 | 96 | 1006.0 |
| 20260506171036 | 48 | 0 | 0.0 | 4.3 | 0.15 | 0.90 | 0.74 | 96 | 1006.1 |
| 20260506170537 | 48 | 0 | 0.9 | 4.3 | 0.15 | 0.89 | 0.73 | 96 | 1006.1 |
| 20260506170045 | 48 | 0 | 1.7 | 4.3 | 0.12 | 0.86 | 0.70 | 96 | 1006.0 |
| 20260506165540 | 48 | 309 | 0.0 | 1.7 | 0.10 | 0.83 | 0.67 | 96 | 1005.8 |
| 20260506165037 | 47 | 0 | 0.0 | 1.7 | 0.09 | 0.81 | 0.65 | 95 | 1005.7 |
| 20260506164547 | 48 | 0 | 0.0 | 1.7 | 0.08 | 0.80 | 0.64 | 96 | 1005.6 |
| 20260506164038 | 47 | 53 | 0.0 | 0.9 | 0.08 | 0.79 | 0.63 | 96 | 1005.7 |
| 20260506163535 | 47 | 0 | 0.0 | 1.7 | 0.08 | 0.79 | 0.63 | 96 | 1005.9 |
| 20260506163100 | 47 | 0 | 0.0 | 1.7 | 0.08 | 0.78 | 0.62 | 95 | 1005.9 |
| 20260506162535 | 47 | 0 | 0.0 | 0.9 | 0.08 | 0.77 | 0.61 | 96 | 1006.0 |
| 20260506162039 | 47 | 0 | 0.0 | 0.9 | 0.07 | 0.76 | 0.60 | 96 | 1006.0 |
| 20260506161546 | 47 | 0 | 0.0 | 1.7 | 0.07 | 0.75 | 0.58 | 96 | 1006.1 |